TimeEST,TemperatureF,Dew PointF,Humidity,Sea Level PressureIn,VisibilityMPH,Wind Direction,Wind SpeedMPH,Gust SpeedMPH,PrecipitationIn,Events,Conditions,WindDirDegrees,DateUTC
12:15 AM,12.2,6.8,79,29.73,0.2,North,32.2,41.4,N/A,,Overcast,10,2013-02-09 05:15:00
12:35 AM,12.2,10.4,92,29.71,0.5,North,32.2,41.4,N/A,,Overcast,10,2013-02-09 05:35:00
12:55 AM,12.2,3.2,67,29.70,0.2,North,25.3,36.8,N/A,,Overcast,10,2013-02-09 05:55:00
1:35 AM,12.2,10.4,92,29.67,0.2,North,29.9,39.1,N/A,,Overcast,10,2013-02-09 06:35:00
1:55 AM,12.2,3.2,67,29.69,0.2,North,33.4,41.4,N/A,,Overcast,10,2013-02-09 06:55:00
2:15 AM,12.2,8.6,85,29.69,0.2,North,28.8,39.1,N/A,,Overcast,360,2013-02-09 07:15:00
2:35 AM,12.2,8.6,85,29.68,0.2,North,25.3,36.8,N/A,,Overcast,360,2013-02-09 07:35:00
2:55 AM,12.2,8.6,85,29.66,0.2,North,27.6,39.1,N/A,,Overcast,360,2013-02-09 07:55:00
3:15 AM,12.2,6.8,79,29.66,0.2,North,32.2,44.9,N/A,,Overcast,360,2013-02-09 08:15:00
3:35 AM,12.2,6.8,79,29.65,0.2,North,28.8,42.6,N/A,,Overcast,360,2013-02-09 08:35:00
3:55 AM,12.2,8.6,85,29.64,0.2,North,31.1,41.4,N/A,,Overcast,360,2013-02-09 08:55:00
4:15 AM,12.2,10.4,92,29.63,0.2,North,34.5,44.9,N/A,,Overcast,360,2013-02-09 09:15:00
4:35 AM,12.2,6.8,79,29.63,0.2,North,29.9,47.2,N/A,,Overcast,360,2013-02-09 09:35:00
4:55 AM,12.2,10.4,92,29.62,0.5,North,31.1,39.1,N/A,,Overcast,360,2013-02-09 09:55:00
5:15 AM,12.2,6.8,79,29.62,0.2,North,35.7,44.9,N/A,,Overcast,360,2013-02-09 10:15:00
5:35 AM,12.2,8.6,85,29.62,0.2,North,34.5,49.5,N/A,,Overcast,360,2013-02-09 10:35:00
5:55 AM,12.2,10.4,92,29.63,0.2,North,32.2,43.7,N/A,,Overcast,360,2013-02-09 10:55:00
6:15 AM,12.2,10.4,92,29.64,0.2,North,26.5,42.6,N/A,,Overcast,360,2013-02-09 11:15:00
6:35 AM,12.2,8.6,85,29.64,0.2,North,28.8,43.7,N/A,,Overcast,360,2013-02-09 11:35:00
6:55 AM,14.0,10.4,86,29.65,0.2,North,25.3,38.0,N/A,,Overcast,360,2013-02-09 11:55:00
7:15 AM,14.0,10.4,86,29.67,0.2,North,27.6,36.8,N/A,,Overcast,360,2013-02-09 12:15:00
7:35 AM,14.0,6.8,73,29.66,0.2,North,31.1,39.1,N/A,,Overcast,360,2013-02-09 12:35:00
7:55 AM,14.0,10.4,86,29.68,0.2,North,26.5,38.0,N/A,,Overcast,360,2013-02-09 12:55:00
8:15 AM,15.8,8.6,73,29.68,0.2,NNW,23.0,35.7,N/A,,Overcast,340,2013-02-09 13:15:00
8:35 AM,15.8,8.6,73,29.69,0.2,North,21.9,29.9,N/A,,Overcast,360,2013-02-09 13:35:00
8:55 AM,15.8,12.2,86,29.70,0.2,North,21.9,33.4,N/A,,Overcast,360,2013-02-09 13:55:00
9:15 AM,15.8,8.6,73,29.71,0.2,North,24.2,39.1,N/A,,Overcast,360,2013-02-09 14:15:00
9:35 AM,15.8,10.4,79,29.72,0.2,North,28.8,39.1,N/A,,Overcast,360,2013-02-09 14:35:00
9:55 AM,15.8,12.2,86,29.73,0.2,North,21.9,34.5,N/A,,Overcast,360,2013-02-09 14:55:00
10:15 AM,17.6,8.6,68,29.74,0.2,North,20.7,33.4,N/A,,Overcast,360,2013-02-09 15:15:00
10:35 AM,17.6,14.0,86,29.74,0.2,North,26.5,39.1,N/A,,Overcast,360,2013-02-09 15:35:00
10:55 AM,17.6,8.6,68,29.75,0.2,North,23.0,39.1,N/A,,Overcast,360,2013-02-09 15:55:00
11:15 AM,17.6,12.2,79,29.75,0.2,North,24.2,38.0,N/A,,Overcast,360,2013-02-09 16:15:00
11:35 AM,17.6,15.8,93,29.76,0.2,North,19.6,35.7,N/A,,Overcast,360,2013-02-09 16:35:00
11:55 AM,17.6,10.4,73,29.76,0.2,North,24.2,36.8,N/A,,Overcast,360,2013-02-09 16:55:00
12:15 PM,17.6,14.0,86,29.76,0.2,North,24.2,35.7,N/A,,Overcast,360,2013-02-09 17:15:00
12:35 PM,19.4,10.4,68,29.77,0.8,North,20.7,28.8,N/A,,Overcast,360,2013-02-09 17:35:00
12:55 PM,19.4,8.6,63,29.78,0.8,North,25.3,31.1,N/A,,Overcast,360,2013-02-09 17:55:00
1:15 PM,19.4,12.2,74,29.79,0.5,North,18.4,41.4,N/A,,Overcast,360,2013-02-09 18:15:00
1:35 PM,19.4,8.6,63,29.81,1.2,NNW,19.6,29.9,N/A,,Overcast,330,2013-02-09 18:35:00
1:55 PM,19.4,10.4,68,29.82,1.2,NNW,17.3,29.9,N/A,,Overcast,340,2013-02-09 18:55:00
2:15 PM,19.4,10.4,68,29.83,1.2,NNW,21.9,29.9,N/A,,Overcast,340,2013-02-09 19:15:00
2:35 PM,19.4,6.8,58,29.85,1.5,NNW,20.7,32.2,N/A,,Overcast,330,2013-02-09 19:35:00
2:55 PM,19.4,8.6,63,29.87,1.5,North,20.7,28.8,N/A,,Overcast,360,2013-02-09 19:55:00
3:15 PM,19.4,8.6,63,29.88,1.0,NNW,20.7,28.8,N/A,,Overcast,340,2013-02-09 20:15:00
3:35 PM,19.4,5.0,54,29.90,1.2,NNW,25.3,33.4,N/A,,Scattered Clouds,340,2013-02-09 20:35:00
3:55 PM,19.4,8.6,63,29.91,3.0,NNW,16.1,27.6,N/A,,Scattered Clouds,340,2013-02-09 20:55:00
4:15 PM,19.4,6.8,58,29.92,1.2,NNW,25.3,34.5,N/A,,Mostly Cloudy,340,2013-02-09 21:15:00
4:35 PM,19.4,3.2,49,29.94,2.0,NNW,19.6,34.5,N/A,,Mostly Cloudy,340,2013-02-09 21:35:00
4:55 PM,19.4,6.8,58,29.95,2.5,NNW,19.6,31.1,N/A,,Partly Cloudy,340,2013-02-09 21:55:00
5:15 PM,19.4,6.8,58,29.97,2.0,NNW,19.6,31.1,N/A,,Scattered Clouds,340,2013-02-09 22:15:00
5:35 PM,19.4,6.8,58,29.98,2.0,NNW,17.3,34.5,N/A,,Mostly Cloudy,340,2013-02-09 22:35:00
6:15 PM,19.4,5.0,54,30.00,9.0,NNW,16.1,21.9,N/A,,Scattered Clouds,340,2013-02-09 23:15:00
6:35 PM,19.4,5.0,54,30.01,10.0,NNW,16.1,24.2,N/A,,Clear,340,2013-02-09 23:35:00
6:55 PM,19.4,6.8,58,30.03,10.0,North,17.3,21.9,N/A,,Clear,360,2013-02-09 23:55:00
7:35 PM,19.4,3.2,49,30.05,10.0,NNW,10.4,19.6,N/A,,Clear,330,2013-02-10 00:35:00
7:55 PM,17.6,5.0,58,30.05,10.0,NNW,11.5,20.7,N/A,,Clear,340,2013-02-10 00:55:00
8:35 PM,17.6,3.2,53,30.06,10.0,NW,11.5,21.9,N/A,,Partly Cloudy,320,2013-02-10 01:35:00
8:55 PM,17.6,3.2,53,30.07,10.0,NNW,10.4,-,N/A,,Partly Cloudy,330,2013-02-10 01:55:00
9:15 PM,17.6,1.4,49,30.08,9.0,NNW,11.5,17.3,N/A,,Clear,330,2013-02-10 02:15:00
9:35 PM,17.6,3.2,53,30.09,10.0,NW,6.9,-,N/A,,Clear,310,2013-02-10 02:35:00
9:55 PM,15.8,3.2,58,30.09,10.0,WNW,10.4,-,N/A,,Clear,300,2013-02-10 02:55:00
10:15 PM,15.8,1.4,53,30.10,10.0,NW,6.9,-,N/A,,Clear,310,2013-02-10 03:15:00
10:35 PM,15.8,3.2,58,30.10,10.0,NW,10.4,16.1,N/A,,Clear,320,2013-02-10 03:35:00
10:55 PM,15.8,1.4,53,30.10,10.0,NNW,9.2,-,N/A,,Clear,330,2013-02-10 03:55:00
11:15 PM,15.8,3.2,58,30.10,10.0,NW,11.5,17.3,N/A,,Clear,310,2013-02-10 04:15:00
11:35 PM,15.8,1.4,53,30.11,10.0,NW,11.5,16.1,N/A,,Clear,320,2013-02-10 04:35:00
11:55 PM,15.8,-0.4,49,30.12,10.0,NW,13.8,17.3,N/A,,Clear,310,2013-02-10 04:55:00